"datetime","temp","dp","rain_mm","uv","solar","mb","wind_mph","gust_mph","windchill","rh"
"2024-04-06 00:00:00",14.1,12.8,0.0,0.0,0,1004.4,4,6,"",92
"2024-04-06 00:01:00",14.1,12.8,0.0,0.0,0,1004.3,3,5,"",92
"2024-04-06 00:02:00",14.2,12.9,0.0,0.0,0,1004.3,2,5,"",92
"2024-04-06 00:03:00",14.2,12.9,0.0,0.0,0,1004.3,3,5,"",92
"2024-04-06 00:04:00",14.2,12.8,0.0,0.0,0,1004.2,3,6,"",91
"2024-04-06 00:05:00",14.2,12.8,0.0,0.0,0,1004.2,2,3,"",91
"2024-04-06 00:06:00",14.2,12.8,0.0,0.0,0,1004.1,3,7,"",91
"2024-04-06 00:07:00",14.2,12.8,0.0,0.0,0,1004.2,3,6,"",91
"2024-04-06 00:08:00",14.2,12.8,0.0,0.0,0,1004.1,1,3,"",91
"2024-04-06 00:09:00",14.2,12.8,0.0,0.0,0,1004.1,1,3,"",91
"2024-04-06 00:10:00",14.2,12.8,0.0,0.0,0,1004.1,3,6,"",91
"2024-04-06 00:11:00",14.3,12.9,0.0,0.0,0,1004.1,2,5,"",91
"2024-04-06 00:12:00",14.3,12.9,0.0,0.0,0,1004.0,3,5,"",91
"2024-04-06 00:13:00",14.3,12.9,0.0,0.0,0,1004.1,3,5,"",91
"2024-04-06 00:14:00",14.3,12.9,0.0,0.0,0,1004.0,2,3,"",91
"2024-04-06 00:15:00",14.3,12.9,0.0,0.0,0,1004.0,4,8,"",91
"2024-04-06 00:16:00",14.3,12.9,0.0,0.0,0,1004.0,3,6,"",91
"2024-04-06 00:17:00",14.3,12.9,0.0,0.0,0,1004.0,2,4,"",91
"2024-04-06 00:18:00",14.3,12.9,0.0,0.0,0,1003.9,2,5,"",91
"2024-04-06 00:19:00",14.3,12.9,0.0,0.0,0,1003.9,3,6,"",91
"2024-04-06 00:20:00",14.3,12.9,0.0,0.0,0,1003.9,3,4,"",91
"2024-04-06 00:21:00",14.4,12.9,0.0,0.0,0,1003.9,2,4,"",91
"2024-04-06 00:22:00",14.4,12.9,0.0,0.0,0,1003.8,1,3,"",91
"2024-04-06 00:23:00",14.4,12.9,0.0,0.0,0,1003.7,2,5,"",91
"2024-04-06 00:24:00",14.4,12.9,0.0,0.0,0,1003.7,2,4,"",91
"2024-04-06 00:25:00",14.4,12.9,0.0,0.0,0,1003.7,2,5,"",91
"2024-04-06 00:26:00",14.4,12.9,0.0,0.0,0,1003.6,2,5,"",91
"2024-04-06 00:27:00",14.4,12.9,0.0,0.0,0,1003.6,1,3,"",91
"2024-04-06 00:28:00",14.4,12.9,0.0,0.0,0,1003.7,2,5,"",91
"2024-04-06 00:29:00",14.4,12.9,0.0,0.0,0,1003.7,2,4,"",91
"2024-04-06 00:30:00",14.4,12.9,0.0,0.0,0,1003.7,2,4,"",91
"2024-04-06 00:31:00",14.4,12.9,0.0,0.0,0,1003.7,2,5,"",91
"2024-04-06 00:32:00",14.4,12.9,0.0,0.0,0,1003.7,3,6,"",91
"2024-04-06 00:33:00",14.4,12.9,0.0,0.0,0,1003.7,2,5,"",91
"2024-04-06 00:34:00",14.4,12.9,0.0,0.0,0,1003.7,3,6,"",91
"2024-04-06 00:35:00",14.4,12.9,0.0,0.0,0,1003.7,3,6,"",91
"2024-04-06 00:36:00",14.4,12.9,0.0,0.0,0,1003.7,3,4,"",91
"2024-04-06 00:37:00",14.4,12.9,0.0,0.0,0,1003.6,2,4,"",91
"2024-04-06 00:38:00",14.4,12.9,0.0,0.0,0,1003.6,2,4,"",91
"2024-04-06 00:39:00",14.5,13.0,0.0,0.0,0,1003.6,2,6,"",91
"2024-04-06 00:40:00",14.5,13.0,0.0,0.0,0,1003.7,3,5,"",91
"2024-04-06 00:41:00",14.6,13.1,0.0,0.0,0,1003.8,3,5,"",91
"2024-04-06 00:42:00",14.6,13.1,0.0,0.0,0,1003.8,5,9,"",91
"2024-04-06 00:43:00",14.6,13.1,0.0,0.0,0,1003.8,3,8,"",91
"2024-04-06 00:44:00",14.6,13.1,0.0,0.0,0,1003.8,3,5,"",91
"2024-04-06 00:45:00",14.6,13.1,0.0,0.0,0,1003.8,2,3,"",91
"2024-04-06 00:46:00",14.6,13.1,0.0,0.0,0,1003.8,2,4,"",91
"2024-04-06 00:47:00",14.6,13.1,0.0,0.0,0,1003.8,2,4,"",91
"2024-04-06 00:48:00",14.6,13.1,0.0,0.0,0,1003.8,3,5,"",91
"2024-04-06 00:49:00",14.6,13.1,0.0,0.0,0,1003.7,3,6,"",91
"2024-04-06 00:50:00",14.7,13.2,0.0,0.0,0,1003.6,3,8,"",91
"2024-04-06 00:51:00",14.7,13.2,0.0,0.0,0,1003.6,2,5,"",91
"2024-04-06 00:52:00",14.7,13.2,0.0,0.0,0,1003.5,2,4,"",91
"2024-04-06 00:53:00",14.7,13.2,0.0,0.0,0,1003.6,2,5,"",91
"2024-04-06 00:54:00",14.6,13.1,0.0,0.0,0,1003.5,3,7,"",91
"2024-04-06 00:55:00",14.6,13.1,0.0,0.0,0,1003.5,4,6,"",91
"2024-04-06 00:56:00",14.7,13.2,0.0,0.0,0,1003.5,4,6,"",91
"2024-04-06 00:57:00",14.7,13.2,0.0,0.0,0,1003.5,2,4,"",91
"2024-04-06 00:58:00",14.7,13.2,0.0,0.0,0,1003.5,2,5,"",91
"2024-04-06 00:59:00",14.7,13.2,0.0,0.0,0,1003.4,2,6,"",91
"2024-04-06 01:00:00",14.8,13.3,0.0,0.0,0,1003.4,3,8,"",91
"2024-04-06 01:01:00",14.8,13.3,0.0,0.0,0,1003.5,2,6,"",91
"2024-04-06 01:02:00",14.8,13.3,0.0,0.0,0,1003.5,3,7,"",91
"2024-04-06 01:03:00",14.8,13.3,0.0,0.0,0,1003.5,5,9,"",91
"2024-04-06 01:04:00",14.8,13.3,0.0,0.0,0,1003.6,3,7,"",91
"2024-04-06 01:05:00",14.9,13.4,0.0,0.0,0,1003.6,3,5,"",91
"2024-04-06 01:06:00",14.9,13.4,0.0,0.0,0,1003.6,4,9,"",91
"2024-04-06 01:07:00",14.9,13.4,0.0,0.0,0,1003.6,5,7,"",91
"2024-04-06 01:08:00",14.9,13.4,0.0,0.0,0,1003.6,3,5,"",91
"2024-04-06 01:09:00",14.9,13.4,0.0,0.0,0,1003.7,5,8,"",91
"2024-04-06 01:10:00",15.0,13.4,0.0,0.0,0,1003.6,3,5,"",90
"2024-04-06 01:11:00",15.0,13.4,0.0,0.0,0,1003.6,3,6,"",90
"2024-04-06 01:12:00",15.0,13.4,0.0,0.0,0,1003.5,4,7,"",90
"2024-04-06 01:13:00",15.0,13.4,0.0,0.0,0,1003.5,4,7,"",90
"2024-04-06 01:14:00",15.1,13.5,0.0,0.0,0,1003.4,2,3,"",90
"2024-04-06 01:15:00",15.1,13.5,0.0,0.0,0,1003.4,4,6,"",90
"2024-04-06 01:16:00",15.1,13.5,0.0,0.0,0,1003.3,2,5,"",90
"2024-04-06 01:17:00",15.1,13.5,0.0,0.0,0,1003.4,4,7,"",90
"2024-04-06 01:18:00",15.1,13.5,0.0,0.0,0,1003.4,2,4,"",90
"2024-04-06 01:19:00",15.1,13.5,0.0,0.0,0,1003.3,2,3,"",90
"2024-04-06 01:20:00",15.1,13.5,0.0,0.0,0,1003.3,4,13,"",90
"2024-04-06 01:21:00",15.0,13.4,0.0,0.0,0,1003.3,2,3,"",90
"2024-04-06 01:22:00",15.1,13.5,0.0,0.0,0,1003.4,4,6,"",90
"2024-04-06 01:23:00",15.1,13.5,0.0,0.0,0,1003.3,4,7,"",90
"2024-04-06 01:24:00",15.1,13.5,0.0,0.0,0,1003.4,3,6,"",90
"2024-04-06 01:25:00",15.1,13.5,0.0,0.0,0,1003.4,4,6,"",90
"2024-04-06 01:26:00",15.1,13.5,0.0,0.0,0,1003.4,3,6,"",90
"2024-04-06 01:27:00",15.1,13.5,0.0,0.0,0,1003.4,2,5,"",90
"2024-04-06 01:28:00",15.1,13.5,0.0,0.0,0,1003.3,1,2,"",90
"2024-04-06 01:29:00",15.1,13.5,0.0,0.0,0,1003.3,2,4,"",90
"2024-04-06 01:30:00",15.1,13.5,0.0,0.0,0,1003.2,4,8,"",90
"2024-04-06 01:31:00",15.1,13.5,0.0,0.0,0,1003.3,5,9,"",90
"2024-04-06 01:32:00",15.1,13.5,0.0,0.0,0,1003.2,2,5,"",90
"2024-04-06 01:33:00",15.1,13.5,0.0,0.0,0,1003.1,2,6,"",90
"2024-04-06 01:34:00",15.1,13.5,0.0,0.0,0,1003.1,3,6,"",90
"2024-04-06 01:35:00",15.1,13.5,0.0,0.0,0,1003.0,4,6,"",90
"2024-04-06 01:36:00",15.1,13.5,0.0,0.0,0,1003.0,2,4,"",90
"2024-04-06 01:37:00",15.1,13.5,0.0,0.0,0,1002.9,3,5,"",90
"2024-04-06 01:38:00",15.1,13.5,0.0,0.0,0,1002.9,5,10,"",90
"2024-04-06 01:39:00",15.1,13.5,0.0,0.0,0,1002.9,4,11,"",90
"2024-04-06 01:40:00",15.1,13.5,0.0,0.0,0,1002.9,4,9,"",90
"2024-04-06 01:41:00",15.1,13.5,0.0,0.0,0,1002.8,2,4,"",90
"2024-04-06 01:42:00",15.1,13.5,0.0,0.0,0,1002.7,5,8,"",90
"2024-04-06 01:43:00",15.1,13.5,0.0,0.0,0,1002.8,2,4,"",90
"2024-04-06 01:44:00",15.1,13.5,0.0,0.0,0,1002.7,3,5,"",90
"2024-04-06 01:45:00",15.1,13.3,0.0,0.0,0,1002.6,3,8,"",89
"2024-04-06 01:46:00",15.1,13.3,0.0,0.0,0,1002.7,1,2,"",89
"2024-04-06 01:47:00",15.1,13.3,0.0,0.0,0,1002.7,3,5,"",89
"2024-04-06 01:48:00",15.1,13.3,0.0,0.0,0,1002.6,2,4,"",89
"2024-04-06 01:49:00",15.1,13.3,0.0,0.0,0,1002.5,2,5,"",89
"2024-04-06 01:50:00",15.1,13.3,0.0,0.0,0,1002.6,2,7,"",89
"2024-04-06 01:51:00",15.0,13.2,0.0,0.0,0,1002.6,2,5,"",89
"2024-04-06 01:52:00",15.0,13.2,0.0,0.0,0,1002.7,2,4,"",89
"2024-04-06 01:53:00",15.0,13.2,0.0,0.0,0,1002.7,2,5,"",89
"2024-04-06 01:54:00",15.0,13.2,0.0,0.0,0,1002.7,2,3,"",89
"2024-04-06 01:55:00",14.9,13.1,0.0,0.0,0,1002.7,1,2,"",89
"2024-04-06 01:56:00",14.9,13.1,0.0,0.0,0,1002.7,2,6,"",89
"2024-04-06 01:57:00",14.8,13.0,0.0,0.0,0,1002.7,4,8,"",89
"2024-04-06 01:58:00",14.8,13.0,0.0,0.0,0,1002.7,3,4,"",89
"2024-04-06 01:59:00",14.8,13.0,0.0,0.0,0,1002.7,1,2,"",89
"2024-04-06 02:00:00",14.7,13.1,0.0,0.0,0,1002.6,1,2,"",90
"2024-04-06 02:01:00",14.7,13.1,0.0,0.0,0,1002.6,2,6,"",90
"2024-04-06 02:02:00",14.7,13.1,0.0,0.0,0,1002.5,3,5,"",90
"2024-04-06 02:03:00",14.7,13.1,0.0,0.0,0,1002.5,2,6,"",90
"2024-04-06 02:04:00",14.7,13.1,0.0,0.0,0,1002.5,2,5,"",90
"2024-04-06 02:05:00",14.7,13.1,0.0,0.0,0,1002.5,2,3,"",90
"2024-04-06 02:06:00",14.7,13.1,0.0,0.0,0,1002.5,2,6,"",90
"2024-04-06 02:07:00",14.7,13.1,0.0,0.0,0,1002.5,3,6,"",90
"2024-04-06 02:08:00",14.7,13.1,0.0,0.0,0,1002.5,3,6,"",90
"2024-04-06 02:09:00",14.8,13.0,0.0,0.0,0,1002.4,2,3,"",89
"2024-04-06 02:10:00",14.8,13.0,0.0,0.0,0,1002.4,2,2,"",89
"2024-04-06 02:11:00",14.8,13.0,0.0,0.0,0,1002.4,2,5,"",89
"2024-04-06 02:12:00",14.8,13.0,0.0,0.0,0,1002.4,1,4,"",89
"2024-04-06 02:13:00",14.8,13.0,0.0,0.0,0,1002.4,1,3,"",89
"2024-04-06 02:14:00",14.8,13.0,0.0,0.0,0,1002.4,4,6,"",89
"2024-04-06 02:15:00",14.8,13.0,0.0,0.0,0,1002.4,2,5,"",89
"2024-04-06 02:16:00",14.8,13.0,0.0,0.0,0,1002.5,2,4,"",89
"2024-04-06 02:17:00",14.8,12.8,0.0,0.0,0,1002.5,2,4,"",88
"2024-04-06 02:18:00",14.8,12.8,0.0,0.0,0,1002.4,4,7,"",88
"2024-04-06 02:19:00",14.8,12.8,0.0,0.0,0,1002.5,3,5,"",88
"2024-04-06 02:20:00",14.8,12.8,0.0,0.0,0,1002.5,4,6,"",88
"2024-04-06 02:21:00",14.8,12.8,0.0,0.0,0,1002.4,2,5,"",88
"2024-04-06 02:22:00",14.8,12.8,0.0,0.0,0,1002.4,1,2,"",88
"2024-04-06 02:23:00",14.8,12.8,0.0,0.0,0,1002.4,3,4,"",88
"2024-04-06 02:24:00",14.9,12.9,0.0,0.0,0,1002.5,2,4,"",88
"2024-04-06 02:25:00",14.9,12.9,0.0,0.0,0,1002.4,1,2,"",88
"2024-04-06 02:26:00",14.8,12.8,0.0,0.0,0,1002.4,2,5,"",88
"2024-04-06 02:27:00",14.8,12.8,0.0,0.0,0,1002.4,4,8,"",88
"2024-04-06 02:28:00",14.8,12.8,0.0,0.0,0,1002.4,2,6,"",88
"2024-04-06 02:29:00",14.8,12.8,0.0,0.0,0,1002.3,1,2,"",88
"2024-04-06 02:30:00",14.9,12.8,0.0,0.0,0,1002.3,1,2,"",87
"2024-04-06 02:31:00",14.9,12.8,0.0,0.0,0,1002.3,2,4,"",87
"2024-04-06 02:32:00",14.9,12.8,0.0,0.0,0,1002.3,4,7,"",87
"2024-04-06 02:33:00",14.9,12.8,0.0,0.0,0,1002.3,1,3,"",87
"2024-04-06 02:34:00",14.9,12.8,0.0,0.0,0,1002.2,2,4,"",87
"2024-04-06 02:35:00",14.9,12.8,0.0,0.0,0,1002.1,0,1,"",87
"2024-04-06 02:36:00",14.8,12.7,0.0,0.0,0,1002.0,1,5,"",87
"2024-04-06 02:37:00",14.9,12.8,0.0,0.0,0,1002.0,4,6,"",87
"2024-04-06 02:38:00",14.8,12.7,0.0,0.0,0,1002.0,3,6,"",87
"2024-04-06 02:39:00",14.9,12.6,0.0,0.0,0,1001.9,3,5,"",86
"2024-04-06 02:40:00",14.9,12.6,0.0,0.0,0,1002.0,2,4,"",86
"2024-04-06 02:41:00",14.9,12.6,0.0,0.0,0,1001.9,2,3,"",86
"2024-04-06 02:42:00",14.9,12.6,0.0,0.0,0,1001.9,3,8,"",86
"2024-04-06 02:43:00",14.9,12.6,0.0,0.0,0,1001.9,2,3,"",86
"2024-04-06 02:44:00",14.9,12.6,0.0,0.0,0,1001.8,2,3,"",86
"2024-04-06 02:45:00",14.9,12.6,0.0,0.0,0,1001.7,2,3,"",86
"2024-04-06 02:46:00",14.9,12.6,0.0,0.0,0,1001.7,2,3,"",86
"2024-04-06 02:47:00",14.9,12.6,0.0,0.0,0,1001.7,3,7,"",86
"2024-04-06 02:48:00",14.9,12.6,0.0,0.0,0,1001.6,2,6,"",86
"2024-04-06 02:49:00",14.9,12.4,0.0,0.0,0,1001.7,3,7,"",85
"2024-04-06 02:50:00",14.9,12.4,0.0,0.0,0,1001.6,2,4,"",85
"2024-04-06 02:51:00",14.9,12.4,0.0,0.0,0,1001.5,2,5,"",85
"2024-04-06 02:52:00",15.0,12.5,0.0,0.0,0,1001.5,2,4,"",85
"2024-04-06 02:53:00",14.9,12.4,0.0,0.0,0,1001.5,3,6,"",85
"2024-04-06 02:54:00",14.9,12.4,0.0,0.0,0,1001.5,3,8,"",85
"2024-04-06 02:55:00",14.9,12.4,0.0,0.0,0,1001.5,4,5,"",85
"2024-04-06 02:56:00",14.9,12.2,0.0,0.0,0,1001.5,2,4,"",84
"2024-04-06 02:57:00",15.0,12.3,0.0,0.0,0,1001.5,3,6,"",84
"2024-04-06 02:58:00",15.0,12.3,0.0,0.0,0,1001.4,3,7,"",84
"2024-04-06 02:59:00",15.0,12.3,0.0,0.0,0,1001.4,2,3,"",84
"2024-04-06 03:00:00",15.0,12.3,0.0,0.0,0,1001.4,2,3,"",84
"2024-04-06 03:01:00",15.0,12.3,0.0,0.0,0,1001.3,2,3,"",84
"2024-04-06 03:02:00",15.0,12.3,0.0,0.0,0,1001.4,1,2,"",84
"2024-04-06 03:03:00",15.0,12.3,0.0,0.0,0,1001.4,2,4,"",84
"2024-04-06 03:04:00",14.9,12.2,0.0,0.0,0,1001.4,3,6,"",84
"2024-04-06 03:05:00",14.9,12.2,0.0,0.0,0,1001.4,1,3,"",84
"2024-04-06 03:06:00",14.9,12.2,0.0,0.0,0,1001.4,0,1,"",84
"2024-04-06 03:07:00",14.9,12.2,0.0,0.0,0,1001.4,0,1,"",84
"2024-04-06 03:08:00",14.9,12.2,0.0,0.0,0,1001.4,2,4,"",84
"2024-04-06 03:09:00",14.8,12.1,0.0,0.0,0,1001.4,1,3,"",84
"2024-04-06 03:10:00",14.8,12.1,0.0,0.0,0,1001.4,2,4,"",84
"2024-04-06 03:11:00",14.8,11.9,0.0,0.0,0,1001.4,4,5,"",83
"2024-04-06 03:12:00",14.8,11.9,0.0,0.0,0,1001.4,3,4,"",83
"2024-04-06 03:13:00",14.8,11.9,0.0,0.0,0,1001.4,2,3,"",83
"2024-04-06 03:14:00",14.8,11.9,0.0,0.0,0,1001.4,3,4,"",83
"2024-04-06 03:15:00",14.8,11.9,0.0,0.0,0,1001.4,1,3,"",83
"2024-04-06 03:16:00",14.8,11.9,0.0,0.0,0,1001.3,2,4,"",83
"2024-04-06 03:17:00",14.8,11.9,0.0,0.0,0,1001.3,2,4,"",83
"2024-04-06 03:18:00",14.7,11.8,0.0,0.0,0,1001.2,2,3,"",83
"2024-04-06 03:19:00",14.7,11.8,0.0,0.0,0,1001.1,2,3,"",83
"2024-04-06 03:20:00",14.7,11.8,0.0,0.0,0,1001.1,2,3,"",83
"2024-04-06 03:21:00",14.7,11.8,0.0,0.0,0,1001.2,1,2,"",83
"2024-04-06 03:22:00",14.7,11.8,0.0,0.0,0,1001.1,2,5,"",83
"2024-04-06 03:23:00",14.7,11.8,0.0,0.0,0,1001.1,1,2,"",83
"2024-04-06 03:24:00",14.7,11.8,0.0,0.0,0,1001.0,2,4,"",83
"2024-04-06 03:25:00",14.7,11.8,0.0,0.0,0,1001.0,3,4,"",83
"2024-04-06 03:26:00",14.7,11.8,0.0,0.0,0,1001.0,2,4,"",83
"2024-04-06 03:27:00",14.7,11.8,0.0,0.0,0,1001.0,2,4,"",83
"2024-04-06 03:28:00",14.7,11.8,0.0,0.0,0,1000.9,3,6,"",83
"2024-04-06 03:29:00",14.7,11.8,0.0,0.0,0,1000.9,3,6,"",83
"2024-04-06 03:30:00",14.7,11.8,0.0,0.0,0,1000.8,0,2,"",83
"2024-04-06 03:31:00",14.7,11.7,0.0,0.0,0,1000.9,1,1,"",82
"2024-04-06 03:32:00",14.7,11.8,0.0,0.0,0,1000.9,0,1,"",83
"2024-04-06 03:33:00",14.7,11.8,0.0,0.0,0,1000.8,2,4,"",83
"2024-04-06 03:34:00",14.7,11.8,0.0,0.0,0,1000.8,1,2,"",83
"2024-04-06 03:35:00",14.6,11.7,0.0,0.0,0,1000.8,1,2,"",83
"2024-04-06 03:36:00",14.6,11.7,0.0,0.0,0,1000.7,1,2,"",83
"2024-04-06 03:37:00",14.6,11.7,0.0,0.0,0,1000.7,1,2,"",83
"2024-04-06 03:38:00",14.5,11.6,0.0,0.0,0,1000.6,1,2,"",83
"2024-04-06 03:39:00",14.4,11.5,0.0,0.0,0,1000.5,2,3,"",83
"2024-04-06 03:40:00",14.4,11.7,0.0,0.0,0,1000.6,2,3,"",84
"2024-04-06 03:41:00",14.3,11.6,0.0,0.0,0,1000.6,2,4,"",84
"2024-04-06 03:42:00",14.3,11.6,0.0,0.0,0,1000.6,0,1,"",84
"2024-04-06 03:43:00",14.2,11.5,0.0,0.0,0,1000.6,1,2,"",84
"2024-04-06 03:44:00",14.2,11.5,0.0,0.0,0,1000.5,2,3,"",84
"2024-04-06 03:45:00",14.1,11.6,0.0,0.0,0,1000.6,1,2,"",85
"2024-04-06 03:46:00",14.1,11.6,0.0,0.0,0,1000.7,1,2,"",85
"2024-04-06 03:47:00",14.0,11.5,0.0,0.0,0,1000.7,1,2,"",85
"2024-04-06 03:48:00",13.9,11.4,0.0,0.0,0,1000.7,1,2,"",85
"2024-04-06 03:49:00",13.9,11.4,0.0,0.0,0,1000.7,1,2,"",85
"2024-04-06 03:50:00",13.8,11.3,0.0,0.0,0,1000.8,1,3,"",85
"2024-04-06 03:51:00",13.8,11.5,0.0,0.0,0,1000.7,2,4,"",86
"2024-04-06 03:52:00",13.8,11.5,0.0,0.0,0,1000.7,1,2,"",86
"2024-04-06 03:53:00",13.8,11.7,0.0,0.0,0,1000.8,1,2,"",87
"2024-04-06 03:54:00",13.8,11.7,0.0,0.0,0,1000.7,1,2,"",87
"2024-04-06 03:55:00",13.8,11.5,0.0,0.0,0,1000.7,1,2,"",86
"2024-04-06 03:56:00",13.8,11.5,0.0,0.0,0,1000.7,2,3,"",86
"2024-04-06 03:57:00",13.8,11.7,0.0,0.0,0,1000.7,1,3,"",87
"2024-04-06 03:58:00",13.8,11.7,0.0,0.0,0,1000.7,0,2,"",87
"2024-04-06 03:59:00",13.8,11.5,0.0,0.0,0,1000.7,1,2,"",86
"2024-04-06 04:00:00",13.7,11.4,0.0,0.0,0,1000.6,0,2,"",86
"2024-04-06 04:01:00",13.7,11.4,0.0,0.0,0,1000.6,1,2,"",86
"2024-04-06 04:02:00",13.6,11.5,0.0,0.0,0,1000.6,1,2,"",87
"2024-04-06 04:03:00",13.6,11.5,0.0,0.0,0,1000.6,0,1,"",87
"2024-04-06 04:04:00",13.6,11.5,0.0,0.0,0,1000.6,1,2,"",87
"2024-04-06 04:05:00",13.5,11.4,0.0,0.0,0,1000.6,1,3,"",87
"2024-04-06 04:06:00",13.5,11.4,0.0,0.0,0,1000.6,3,6,"",87
"2024-04-06 04:07:00",13.4,11.3,0.0,0.0,0,1000.6,2,3,"",87
"2024-04-06 04:08:00",13.4,11.3,0.0,0.0,0,1000.6,1,3,"",87
"2024-04-06 04:09:00",13.4,11.3,0.0,0.0,0,1000.6,1,3,"",87
"2024-04-06 04:10:00",13.4,11.5,0.0,0.0,0,1000.6,2,4,"",88
"2024-04-06 04:11:00",13.4,11.5,0.0,0.0,0,1000.5,2,6,"",88
"2024-04-06 04:12:00",13.4,11.5,0.0,0.0,0,1000.5,1,6,"",88
"2024-04-06 04:13:00",13.4,11.5,0.0,0.0,0,1000.5,2,4,"",88
"2024-04-06 04:14:00",13.4,11.5,0.0,0.0,0,1000.5,3,6,"",88
"2024-04-06 04:15:00",13.3,11.4,0.0,0.0,0,1000.5,1,2,"",88
"2024-04-06 04:16:00",13.3,11.4,0.0,0.0,0,1000.4,3,5,"",88
"2024-04-06 04:17:00",13.3,11.4,0.0,0.0,0,1000.4,3,6,"",88
"2024-04-06 04:18:00",13.3,11.4,0.0,0.0,0,1000.4,2,3,"",88
"2024-04-06 04:19:00",13.3,11.4,0.0,0.0,0,1000.4,1,2,"",88
"2024-04-06 04:20:00",13.3,11.4,0.0,0.0,0,1000.4,1,2,"",88
"2024-04-06 04:21:00",13.3,11.4,0.0,0.0,0,1000.4,2,3,"",88
"2024-04-06 04:22:00",13.3,11.4,0.0,0.0,0,1000.4,2,4,"",88
"2024-04-06 04:23:00",13.3,11.4,0.0,0.0,0,1000.3,1,4,"",88
"2024-04-06 04:24:00",13.3,11.4,0.0,0.0,0,1000.3,2,4,"",88
"2024-04-06 04:25:00",13.3,11.4,0.0,0.0,0,1000.2,1,1,"",88
"2024-04-06 04:26:00",13.2,11.3,0.0,0.0,0,1000.2,2,4,"",88
"2024-04-06 04:27:00",13.3,11.4,0.0,0.0,0,1000.2,2,3,"",88
"2024-04-06 04:28:00",13.3,11.4,0.0,0.0,0,1000.1,2,3,"",88
"2024-04-06 04:29:00",13.3,11.4,0.0,0.0,0,1000.1,1,2,"",88
"2024-04-06 04:30:00",13.3,11.4,0.0,0.0,0,1000.1,1,2,"",88
"2024-04-06 04:31:00",13.3,11.4,0.0,0.0,0,1000.2,1,2,"",88
"2024-04-06 04:32:00",13.3,11.4,0.0,0.0,0,1000.1,1,1,"",88
"2024-04-06 04:33:00",13.2,11.3,0.0,0.0,0,1000.1,1,3,"",88
"2024-04-06 04:34:00",13.2,11.3,0.0,0.0,0,1000.0,1,2,"",88
"2024-04-06 04:35:00",13.2,11.3,0.0,0.0,0,1000.0,1,2,"",88
"2024-04-06 04:36:00",13.2,11.3,0.0,0.0,0,999.9,3,5,"",88
"2024-04-06 04:37:00",13.3,11.4,0.0,0.0,0,1000.0,1,3,"",88
"2024-04-06 04:38:00",13.2,11.3,0.0,0.0,0,999.9,3,8,"",88
"2024-04-06 04:39:00",13.2,11.3,0.0,0.0,0,999.9,3,4,"",88
"2024-04-06 04:40:00",13.3,11.4,0.0,0.0,0,999.9,5,7,"",88
"2024-04-06 04:41:00",13.3,11.4,0.0,0.0,0,999.8,3,6,"",88
"2024-04-06 04:42:00",13.3,11.4,0.0,0.0,0,999.8,1,2,"",88
"2024-04-06 04:43:00",13.3,11.4,0.0,0.0,0,999.7,1,2,"",88
"2024-04-06 04:44:00",13.3,11.4,0.0,0.0,0,999.7,1,2,"",88
"2024-04-06 04:45:00",13.3,11.4,0.0,0.0,0,999.7,2,4,"",88
"2024-04-06 04:46:00",13.4,11.5,0.0,0.0,0,999.7,2,4,"",88
"2024-04-06 04:47:00",13.4,11.5,0.0,0.0,0,999.8,2,3,"",88
"2024-04-06 04:48:00",13.4,11.5,0.0,0.0,0,999.7,2,6,"",88
"2024-04-06 04:49:00",13.5,11.6,0.0,0.0,0,999.8,4,7,"",88
"2024-04-06 04:50:00",13.6,11.6,0.0,0.0,0,999.7,3,4,"",88
"2024-04-06 04:51:00",13.6,11.6,0.0,0.0,0,999.6,2,4,"",88
"2024-04-06 04:52:00",13.6,11.6,0.0,0.0,0,999.7,2,3,"",88
"2024-04-06 04:53:00",13.7,11.7,0.0,0.0,0,999.7,2,4,"",88
"2024-04-06 04:54:00",13.7,11.7,0.0,0.0,0,999.6,3,6,"",88
"2024-04-06 04:55:00",13.7,11.7,0.0,0.0,0,999.6,1,2,"",88
"2024-04-06 04:56:00",13.7,11.6,0.0,0.0,0,999.6,2,4,"",87
"2024-04-06 04:57:00",13.8,11.8,0.0,0.0,0,999.5,4,6,"",88
"2024-04-06 04:58:00",13.8,11.8,0.0,0.0,0,999.4,2,4,"",88
"2024-04-06 04:59:00",13.9,11.9,0.0,0.0,0,999.4,3,8,"",88
"2024-04-06 05:00:00",14.0,11.9,0.0,0.0,0,999.4,4,8,"",87
"2024-04-06 05:01:00",14.0,12.0,0.0,0.0,0,999.5,2,6,"",88
"2024-04-06 05:02:00",14.1,12.1,0.0,0.0,0,999.4,3,6,"",88
"2024-04-06 05:03:00",14.1,12.0,0.0,0.0,0,999.4,3,5,"",87
"2024-04-06 05:04:00",14.2,12.1,0.0,0.0,0,999.4,2,5,"",87
"2024-04-06 05:05:00",14.2,12.1,0.0,0.0,0,999.4,6,9,"",87
"2024-04-06 05:06:00",14.2,12.1,0.0,0.0,0,999.4,4,7,"",87
"2024-04-06 05:07:00",14.3,12.2,0.0,0.0,0,999.4,3,8,"",87
"2024-04-06 05:08:00",14.3,12.2,0.0,0.0,0,999.4,2,7,"",87
"2024-04-06 05:09:00",14.3,12.2,0.0,0.0,0,999.5,2,5,"",87
"2024-04-06 05:10:00",14.3,12.2,0.0,0.0,0,999.5,3,7,"",87
"2024-04-06 05:11:00",14.4,12.3,0.0,0.0,0,999.4,2,3,"",87
"2024-04-06 05:12:00",14.4,12.3,0.0,0.0,0,999.4,3,6,"",87
"2024-04-06 05:13:00",14.4,12.3,0.0,0.0,0,999.3,3,4,"",87
"2024-04-06 05:14:00",14.5,12.4,0.0,0.0,0,999.3,3,6,"",87
"2024-04-06 05:15:00",14.6,12.5,0.0,0.0,0,999.3,4,7,"",87
"2024-04-06 05:16:00",14.6,12.5,0.0,0.0,0,999.3,3,4,"",87
"2024-04-06 05:17:00",14.6,12.5,0.0,0.0,0,999.3,1,3,"",87
"2024-04-06 05:18:00",14.6,12.3,0.0,0.0,0,999.3,1,2,"",86
"2024-04-06 05:19:00",14.7,12.4,0.0,0.0,0,999.2,1,3,"",86
"2024-04-06 05:20:00",14.7,12.4,0.0,0.0,0,999.2,3,6,"",86
"2024-04-06 05:21:00",14.7,12.4,0.0,0.0,0,999.2,3,5,"",86
"2024-04-06 05:22:00",14.8,12.5,0.0,0.0,0,999.2,2,4,"",86
"2024-04-06 05:23:00",14.8,12.3,0.0,0.0,0,999.1,3,6,"",85
"2024-04-06 05:24:00",14.9,12.4,0.0,0.0,0,999.0,3,5,"",85
"2024-04-06 05:25:00",14.9,12.4,0.0,0.0,0,999.0,4,9,"",85
"2024-04-06 05:26:00",14.9,12.2,0.0,0.0,0,999.0,4,8,"",84
"2024-04-06 05:27:00",15.0,12.3,0.0,0.0,0,998.9,3,6,"",84
"2024-04-06 05:28:00",15.1,12.4,0.0,0.0,0,998.9,4,6,"",84
"2024-04-06 05:29:00",15.1,12.4,0.0,0.0,0,998.8,3,7,"",84
"2024-04-06 05:30:00",15.2,12.3,0.0,0.0,0,998.8,5,9,"",83
"2024-04-06 05:31:00",15.2,12.3,0.0,0.0,0,998.7,3,6,"",83
"2024-04-06 05:32:00",15.3,12.4,0.0,0.0,0,998.8,2,5,"",83
"2024-04-06 05:33:00",15.3,12.4,0.0,0.0,0,998.7,2,6,"",83
"2024-04-06 05:34:00",15.3,12.4,0.0,0.0,0,998.8,2,4,"",83
"2024-04-06 05:35:00",15.3,12.4,0.0,0.0,0,998.7,2,5,"",83
"2024-04-06 05:36:00",15.3,12.2,0.0,0.0,0,998.7,3,5,"",82
"2024-04-06 05:37:00",15.4,12.3,0.0,0.0,0,998.7,2,4,"",82
"2024-04-06 05:38:00",15.4,12.3,0.0,0.0,0,998.7,5,10,"",82
"2024-04-06 05:39:00",15.4,12.2,0.0,0.0,0,998.6,2,5,"",81
"2024-04-06 05:40:00",15.4,12.2,0.0,0.0,0,998.6,2,4,"",81
"2024-04-06 05:41:00",15.5,12.3,0.0,0.0,0,998.7,2,4,"",81
"2024-04-06 05:42:00",15.5,12.3,0.0,0.0,0,998.7,4,7,"",81
"2024-04-06 05:43:00",15.6,12.4,0.0,0.0,0,998.6,2,8,"",81
"2024-04-06 05:44:00",15.6,12.2,0.0,0.0,0,998.6,3,12,"",80
"2024-04-06 05:45:00",15.6,12.2,0.0,0.0,0,998.5,4,9,"",80
"2024-04-06 05:46:00",15.6,12.2,0.0,0.0,0,998.5,4,6,"",80
"2024-04-06 05:47:00",15.7,12.3,0.0,0.0,0,998.4,3,6,"",80
"2024-04-06 05:48:00",15.7,12.3,0.0,0.0,0,998.5,4,9,"",80
"2024-04-06 05:49:00",15.8,12.4,0.0,0.0,0,998.4,5,8,"",80
"2024-04-06 05:50:00",15.8,12.2,0.0,0.0,0,998.4,4,6,"",79
"2024-04-06 05:51:00",15.8,12.2,0.0,0.0,0,998.4,5,12,"",79
"2024-04-06 05:52:00",15.9,12.3,0.0,0.0,0,998.5,4,8,"",79
"2024-04-06 05:53:00",15.9,12.3,0.0,0.0,0,998.4,2,5,"",79
"2024-04-06 05:54:00",15.9,12.3,0.0,0.0,0,998.4,4,6,"",79
"2024-04-06 05:55:00",15.9,12.3,0.0,0.0,0,998.4,2,5,"",79
"2024-04-06 05:56:00",15.9,12.1,0.0,0.0,0,998.4,4,6,"",78
"2024-04-06 05:57:00",15.9,12.1,0.0,0.0,0,998.4,4,7,"",78
"2024-04-06 05:58:00",16.0,12.2,0.0,0.0,0,998.4,3,9,"",78
"2024-04-06 05:59:00",16.0,12.2,0.0,0.0,0,998.5,5,10,"",78
"2024-04-06 06:00:00",16.1,12.3,0.0,0.0,0,998.4,3,6,"",78
"2024-04-06 06:01:00",16.1,12.3,0.0,0.0,0,998.4,2,5,"",78
"2024-04-06 06:02:00",16.1,12.3,0.0,0.0,0,998.4,2,4,"",78
"2024-04-06 06:03:00",16.1,12.3,0.0,0.0,0,998.4,2,6,"",78
"2024-04-06 06:04:00",16.1,12.3,0.0,0.0,0,998.4,2,3,"",78
"2024-04-06 06:05:00",16.1,12.3,0.0,0.0,0,998.4,3,6,"",78
"2024-04-06 06:06:00",16.1,12.3,0.0,0.0,0,998.5,2,5,"",78
"2024-04-06 06:07:00",16.1,12.3,0.0,0.0,0,998.4,3,7,"",78
"2024-04-06 06:08:00",16.1,12.3,0.0,0.0,0,998.4,3,9,"",78
"2024-04-06 06:09:00",16.1,12.3,0.0,0.0,0,998.4,5,10,"",78
"2024-04-06 06:10:00",16.1,12.3,0.0,0.0,0,998.4,4,11,"",78
"2024-04-06 06:11:00",16.1,12.3,0.0,0.0,0,998.4,3,5,"",78
"2024-04-06 06:12:00",16.1,12.1,0.0,0.0,0,998.4,5,9,"",77
"2024-04-06 06:13:00",16.1,12.1,0.0,0.0,0,998.4,3,8,"",77
"2024-04-06 06:14:00",16.1,12.1,0.0,0.0,0,998.3,1,3,"",77
"2024-04-06 06:15:00",16.1,12.1,0.0,0.0,0,998.3,2,6,"",77
"2024-04-06 06:16:00",16.1,12.1,0.0,0.0,0,998.4,3,6,"",77
"2024-04-06 06:17:00",16.1,12.3,0.0,0.0,0,998.4,1,3,"",78
"2024-04-06 06:18:00",16.1,12.1,0.0,0.0,0,998.4,4,6,"",77
"2024-04-06 06:19:00",16.2,12.2,0.0,0.0,0,998.4,2,5,"",77
"2024-04-06 06:20:00",16.1,12.1,0.0,0.0,0,998.4,2,7,"",77
"2024-04-06 06:21:00",16.1,12.1,0.0,0.0,0,998.4,4,6,"",77
"2024-04-06 06:22:00",16.1,12.1,0.0,0.0,0,998.4,2,4,"",77
"2024-04-06 06:23:00",16.1,12.1,0.0,0.0,0,998.4,3,6,"",77
"2024-04-06 06:24:00",16.1,12.1,0.0,0.0,0,998.4,2,4,"",77
"2024-04-06 06:25:00",16.1,12.1,0.0,0.0,0,998.4,2,7,"",77
"2024-04-06 06:26:00",16.1,12.1,0.0,0.0,0,998.3,4,7,"",77
"2024-04-06 06:27:00",16.1,12.1,0.0,0.0,0,998.5,5,13,"",77
"2024-04-06 06:28:00",16.1,12.1,0.0,0.0,0,998.4,4,13,"",77
"2024-04-06 06:29:00",16.1,12.1,0.0,0.0,0,998.5,4,11,"",77
"2024-04-06 06:30:00",16.1,12.1,0.0,0.0,0,998.5,2,4,"",77
"2024-04-06 06:31:00",16.1,12.1,0.0,0.0,0,998.5,3,7,"",77
"2024-04-06 06:32:00",16.1,12.1,0.0,0.0,0,998.4,5,9,"",77
"2024-04-06 06:33:00",16.1,12.1,0.0,0.0,0,998.5,2,4,"",77
"2024-04-06 06:34:00",16.1,12.1,0.0,0.0,5,998.4,2,4,"",77
"2024-04-06 06:35:00",16.1,12.1,0.0,0.0,5,998.4,0,1,"",77
"2024-04-06 06:36:00",16.1,12.1,0.0,0.0,7,998.4,3,6,"",77
"2024-04-06 06:37:00",16.1,12.1,0.0,0.0,9,998.3,4,10,"",77
"2024-04-06 06:38:00",16.1,12.1,0.0,0.0,9,998.3,4,8,"",77
"2024-04-06 06:39:00",16.1,12.1,0.0,0.0,11,998.3,3,5,"",77
"2024-04-06 06:40:00",16.1,12.1,0.0,0.0,11,998.3,2,5,"",77
"2024-04-06 06:41:00",16.1,12.3,0.0,0.0,11,998.2,3,6,"",78
"2024-04-06 06:42:00",16.1,12.3,0.0,0.0,12,998.3,3,7,"",78
"2024-04-06 06:43:00",16.1,12.3,0.0,0.0,14,998.3,2,3,"",78
"2024-04-06 06:44:00",16.1,12.3,0.0,0.0,14,998.3,3,5,"",78
"2024-04-06 06:45:00",16.1,12.3,0.0,0.0,16,998.2,4,7,"",78
"2024-04-06 06:46:00",16.1,12.3,0.0,0.0,18,998.3,4,7,"",78